Douglas Bisbee, AZ

2:58 AM MST on November 24, 2017 (GMT -0700)
Bisbee Douglas International

Weather History for KDUG - March, 2013

Change the Weather History Date:

Monday, March 18, 2013

  Actual Average Record
Temperature  
Mean Temperature 61 °F 55 °F  
Max Temperature 78 °F 72 °F 87 °F (2017)
Min Temperature 44 °F 37 °F 23 °F (1999)
Degree Days  
Heating Degree Days 4 10  
Month to date heating degree days 174 208  
Since 1 July heating degree days 2378 2244  
Cooling Degree Days 0 0  
Month to date cooling degree days 0 0  
Year to date cooling degree days 0 0  
Growing Degree Days 12 (Base 50)    
Moisture  
Dew Point 21 °F    
Average Humidity 27    
Maximum Humidity 45    
Minimum Humidity 9    
Precipitation  
Precipitation 0.00 in 0.02 in 0.80 in (1955)
Month to date precipitation 0.02 0.34  
Year to date precipitation 0.86 1.73  
Snow  
Snow 0.00 in - - ()
Month to date snowfall 0.0  
Snow Depth 0.00 in    
Sea Level Pressure  
Sea Level Pressure 29.91 in    
Wind  
Wind Speed 7 mph (SSW)    
Max Wind Speed 21 mph    
Max Gust Speed 28 mph    
Visibility 10 miles    
Events      
T = Trace of Precipitation, MM = Missing Value Source: NWS Daily Summary

Daily Weather History Graph

Daily Weather History Graph

Search for Another Location

Airport or City:

Trip Planner

Search our weather history database for the weather conditions in past years. The results will help you decide how hot, cold, wet, or windy it might be!

Date:

Astronomy

Mar. 18, 2013 Rise Set
Actual Time 6:24 AM MST 6:28 PM MST
Civil Twilight 6:00 AM MST 6:53 PM MST
Nautical Twilight 5:31 AM MST 7:21 PM MST
Astronomical Twilight 5:03 AM MST 7:49 PM MST
Moon 10:47 AM MST (3/18) 12:10 AM MST (3/18)
Length of Visible Light 12h 52m
Length of Day
12h 04m
Waxing Crescent, 41% of the Moon is Illuminated
Mar 18
Waxing Crescent
Mar 19
First Quarter
Mar 27
Full
Apr 2
Last Quarter
Apr 10
New

Hourly Weather History & Observations

Time (MST) Temp. Windchill Dew Point Humidity Pressure Visibility Wind Dir Wind Speed Gust Speed Precip Events Conditions
12:56 AM 55.9 °F - 19.9 °F 25% 29.87 in 10.0 mi WSW 5.8 mph - N/A   Clear
1:56 AM 48.0 °F - 19.9 °F 33% 29.88 in 10.0 mi Calm Calm - N/A   Clear
2:56 AM 46.9 °F - 19.9 °F 34% 29.88 in 10.0 mi Calm Calm - N/A   Clear
3:56 AM 46.9 °F - 24.1 °F 41% 29.88 in 10.0 mi East 8.1 mph - N/A   Clear
4:56 AM 45.0 °F 40.6 °F 24.1 °F 44% 29.89 in 10.0 mi East 8.1 mph - N/A   Clear
5:56 AM 45.0 °F 41.2 °F 25.0 °F 46% 29.92 in 10.0 mi East 6.9 mph - N/A   Clear
6:56 AM 48.0 °F - 27.0 °F 44% 29.94 in 10.0 mi SE 6.9 mph - N/A   Clear
7:56 AM 53.1 °F - 28.9 °F 40% 29.98 in 10.0 mi SSE 3.5 mph - N/A   Clear
8:56 AM 61.0 °F - 30.9 °F 32% 29.96 in 10.0 mi South 8.1 mph - N/A   Clear
9:56 AM 64.9 °F - 32.0 °F 29% 29.96 in 10.0 mi Variable 3.5 mph - N/A   Clear
10:56 AM 68.0 °F - 28.9 °F 23% 29.96 in 10.0 mi SW 6.9 mph 18.4 mph N/A   Clear
11:56 AM 71.1 °F - 27.0 °F 19% 29.93 in 10.0 mi SSE 6.9 mph - N/A   Clear
12:56 PM 73.9 °F - 17.1 °F 12% 29.89 in 10.0 mi South 8.1 mph - N/A   Clear
1:56 PM 73.9 °F - 19.0 °F 13% 29.88 in 10.0 mi WSW 8.1 mph - N/A   Clear
2:56 PM 75.9 °F - 18.0 °F 11% 29.85 in 10.0 mi Variable 3.5 mph - N/A   Clear
3:56 PM 78.1 °F - 16.0 °F 10% 29.84 in 10.0 mi WSW 15.0 mph 25.3 mph N/A   Clear
4:56 PM 77.0 °F - 16.0 °F 10% 29.84 in 10.0 mi SW 13.8 mph - N/A   Clear
5:56 PM 73.9 °F - 14.0 °F 10% 29.86 in 10.0 mi West 12.7 mph 23.0 mph N/A   Clear
6:56 PM 68.0 °F - 16.0 °F 14% 29.89 in 10.0 mi West 9.2 mph - N/A   Clear
7:56 PM 64.0 °F - 18.0 °F 17% 29.91 in 10.0 mi West 10.4 mph - N/A   Clear
8:56 PM 61.0 °F - 17.1 °F 18% 29.92 in 10.0 mi NW 5.8 mph - N/A   Clear
9:56 PM 59.0 °F - 15.1 °F 18% 29.93 in 10.0 mi ENE 4.6 mph - N/A   Clear
10:56 PM 55.0 °F - 17.1 °F 23% 29.94 in 10.0 mi South 5.8 mph - N/A   Clear
11:56 PM 53.1 °F - 17.1 °F 24% 29.93 in 10.0 mi Calm Calm - N/A   Clear